EW1549 Weather Reports


Display with metric or nautical units.
time (UTC)temp
F
wind
direction
speed
MPH
gust
MPH
rain 1hr
in
rain 24hr
in
rain mn
in
humidity
%
barometer
mb
20260905073010 0 226 0.0 1.0 0.00 0.00 0.00 1017.8
20260905071511 0 226 0.0 1.0 0.00 0.00 0.00 1017.6
20260905070003 0 226 0.0 1.0 0.00 0.00 0.00 1017.3
20260905064604 0 226 0.0 1.0 0.00 0.00 0.00 1017.5
20260905063055 0 226 0.0 1.0 0.00 0.00 0.00 1017.4
20260905061556 0 226 0.0 0.0 0.00 0.00 0.00 1017.5
20260905060044 0 226 0.0 0.0 0.00 0.00 0.00 1017.5
20260905054540 0 226 0.0 0.0 0.00 0.00 0.00 1017.5
20260905053033 0 226 0.0 0.0 0.00 0.00 0.00 1017.4
20260905051540 0 226 0.0 0.0 0.00 0.00 0.00 1017.5
20260905050026 0 226 0.0 2.0 0.00 0.00 0.00 1017.4
20260905044522 0 226 0.0 0.0 0.00 0.00 0.00 1017.6
20260905043017 0 226 0.0 1.0 0.00 0.00 0.00 1017.5
20260905041513 0 226 0.0 0.0 0.00 0.00 0.00 1017.4
20260905040008 0 226 0.0 2.0 0.00 0.00 0.00 1017.4
20260905034503 0 226 0.0 0.0 0.00 0.00 0.00 1017.5
20260905033117 0 226 0.0 0.0 0.00 0.00 0.00 1017.5
20260905031611 0 226 0.0 0.0 0.00 0.00 0.00 1017.8
20260905030058 0 226 0.0 0.0 0.00 0.00 0.00 1018.1
20260905024547 0 226 0.0 0.0 0.00 0.00 0.00 1018.0
20260905023053 0 226 0.0 0.0 0.00 0.00 0.00 1017.9
20260905021538 0 226 0.0 0.0 0.00 0.00 0.00 1018.2
20260905020037 0 226 0.0 0.0 0.00 0.00 0.00 1018.2
20260905014530 0 226 0.0 0.0 0.00 0.00 0.00 1018.2
20260905013025 0 226 0.0 0.0 0.00 0.00 0.00 1018.4
20260905011521 0 226 0.0 0.0 0.00 0.00 0.00 1018.5
20260905010016 0 226 0.0 0.0 0.00 0.00 0.00 1018.9
20260905004512 0 226 0.0 3.0 0.00 0.00 0.00 1019.2
20260905003007 0 226 0.0 4.0 0.00 0.00 0.00 1019.2
20260905001503 0 226 0.0 0.0 0.00 0.00 0.00 1019.3
20260905000121 0 226 0.0 1.0 0.00 0.00 0.00 1019.1
20260904234554 0 226 0.0 0.0 0.00 0.00 0.00 1019.1
20260904233051 0 226 0.0 0.0 0.00 0.00 0.00 1019.3
20260904231545 0 226 2.0 5.0 0.00 0.00 0.00 1019.2
20260904224540 0 223 2.0 5.0 0.00 0.00 0.00 1019.4
20260904223043 0 221 2.0 7.0 0.00 0.00 0.00 1019.5
20260904221544 0 235 5.0 10.0 0.00 0.00 0.00 1019.6
20260904220044 0 219 4.0 7.0 0.00 0.00 0.00 1019.7
20260904214538 0 214 3.0 5.0 0.00 0.00 0.00 1019.6
20260904213040 0 239 3.0 5.0 0.00 0.00 0.00 1019.3
20260904211535 0 239 0.0 0.0 0.00 0.00 0.00 1019.1
20260904210036 0 239 0.0 5.0 0.00 0.00 0.00 1018.9
20260904204535 0 239 3.0 5.0 0.00 0.00 0.00 1018.8
20260904203030 0 243 2.0 5.0 0.00 0.00 0.00 1018.6
20260904201524 0 243 0.0 0.0 0.00 0.00 0.00 1018.5
20260904200022 0 243 2.0 6.0 0.00 0.00 0.00 1018.4
20260904194516 0 221 0.0 4.0 0.00 0.00 0.00 1018.3
20260904193012 0 243 0.0 5.0 0.00 0.00 0.00 1018.5
20260904191507 0 259 0.0 3.0 0.00 0.00 0.00 1018.3
20260904190002 0 317 1.0 5.0 0.00 0.00 0.00 1018.2
20260904184558 0 360 0.0 6.0 0.00 0.00 0.00 1018.3
20260904183109 0 14 0.0 9.0 0.00 0.00 0.00 1018.2
20260904181549 0 24 3.0 9.0 0.00 0.00 0.00 1018.2
20260904180047 0 360 5.0 9.0 0.00 0.00 0.00 1018.1
20260904174543 0 41 3.0 15.0 0.00 0.00 0.00 1018.2
20260904173038 0 1 5.0 13.0 0.00 0.00 0.00 1018.2
20260904171540 0 41 11.0 17.0 0.00 0.00 0.00 1018.2
20260904170029 0 32 13.0 19.0 0.00 0.00 0.00 1018.1
20260904164524 0 36 12.0 15.0 0.00 0.00 0.00 1018.1
20260904163020 0 21 9.0 18.0 0.00 0.00 0.00 1017.9
20260904161515 0 17 10.0 17.0 0.00 0.00 0.00 1017.8
20260904160012 0 23 8.0 12.0 0.00 0.00 0.00 1017.9
20260904154507 0 12 7.0 14.0 0.00 0.00 0.00 1018.0
20260904153002 0 51 5.0 10.0 0.00 0.00 0.00 1018.1
20260904151557 0 346 6.0 12.0 0.00 0.00 0.00 1018.3
20260904150053 0 58 7.0 11.0 0.00 0.00 0.00 1018.2
20260904144548 0 302 4.0 10.0 0.00 0.00 0.00 1018.4
20260904143044 0 11 6.0 12.0 0.00 0.00 0.00 1018.4
20260904141542 0 23 11.0 14.0 0.00 0.00 0.00 1018.5
20260904140043 0 5 5.0 15.0 0.00 0.00 0.00 1018.6
20260904134542 0 36 6.0 11.0 0.00 0.00 0.00 1018.8
20260904133046 0 25 6.0 11.0 0.00 0.00 0.00 1018.9
20260904131546 0 15 4.0 10.0 0.00 0.00 0.00 1018.9
20260904130033 0 30 6.0 10.0 0.00 0.00 0.00 1018.9
20260904124529 0 13 5.0 13.0 0.00 0.00 0.00 1019.2
20260904123024 0 6 8.0 12.0 0.00 0.00 0.00 1019.3
20260904121520 0 19 4.0 9.0 0.00 0.00 0.00 1019.4
20260904120020 0 31 6.0 13.0 0.00 0.00 0.00 1019.4
20260904114511 0 36 7.0 12.0 0.00 0.00 0.00 1019.5
20260904113019 0 19 7.0 11.0 0.00 0.00 0.00 1019.7
20260904111502 0 10 4.0 9.0 0.00 0.00 0.00 1019.9
20260904104559 0 355 5.0 9.0 0.00 0.00 0.00 1019.6
20260904103057 0 284 1.0 4.0 0.00 0.00 0.00 1019.7
20260904101552 0 254 0.0 0.0 0.00 0.00 0.00 1019.8
20260904100045 0 254 0.0 0.0 0.00 0.00 0.00 1019.7
20260904094556 0 254 2.0 3.0 0.00 0.00 0.00 1019.6
20260904093035 0 254 0.0 0.0 0.00 0.00 0.00 1019.7
20260904091530 0 254 0.0 3.0 0.00 0.00 0.00 1019.8
20260904090025 0 254 2.0 4.0 0.00 0.00 0.00 1019.7
20260904084521 0 254 2.0 4.0 0.00 0.00 0.00 1019.5
20260904083031 0 254 0.0 3.0 0.00 0.00 0.00 1019.4
20260904081513 0 254 0.0 0.0 0.00 0.00 0.00 1019.4
20260904080008 0 254 0.0 0.0 0.00 0.00 0.00 1019.3
20260904074503 0 254 0.0 0.0 0.00 0.00 0.00 1019.4